View from above orbital plane
|
View from above satellite
|
Ground track
|
The orbit data is extracted from the following two-line orbital elements,
1 16262U 85108A 21018.80255511 .00001051 00000-0 60144-4 0 9994
2 16262 82.4767 40.5356 0013384 85.9092 274.3667 15.11505113916686
Epoch (UTC): | 18 January 2021 19:15:40 |
Eccentricity: | 0.0013384 |
inclination: | 82.4767° |
perigee height: | 522 km |
apogee height: | 541 km |
right ascension of ascending node: | 40.5356° |
argument of perigee: | 85.9092° |
revolutions per day: | 15.11505113 |
mean anomaly at epoch: | 274.3667° |
orbit number at epoch: | 91668 |
The dashed part of the orbit path shows where the satellite is in the earth's shadow,
|
|